Regional Weather Roundup
Issued by NWS

Home | Current Version | Previous Version | Graphics & Text | Print | Product List | Glossary On
Versions: 1 2 3 4 5 6 7 8 9 10 11 12 13 14 15 16 17 18 19 20 21 22 23 24 25 26 27 28 29 30 31 32 33 34 35 36 37 38 39 40 41 42 43 44 45 46 47 48 49 50
000
ASUS45 KCYS 271310
RWRWY

WYOMING REGIONAL WEATHER ROUNDUP
NATIONAL WEATHER SERVICE CHEYENNE WY
600 AM MST THU NOV 27 2014

NOTE:  "FAIR" INDICATES FEW OR NO CLOUDS BELOW 12,000 FEET
WITH NO SIGNIFICANT WEATHER AND/OR OBSTRUCTIONS TO VISIBILITY.

WYZ001-271400-
YELLOWSTONE NATIONAL PARK

CITY           SKY/WX    TMP DP  RH WIND       PRES   REMARKS
LK YELLOWSTONE   N/A     29  26  89 CALM      30.21F
W YELLOWSTONE  NOT AVBL

$$
WYZ002>013-054>058-071-098>099-271400-
NORTHERN WYOMING

CITY           SKY/WX    TMP DP  RH WIND       PRES   REMARKS
JACKSON        CLOUDY    37  28  70 SW12      30.21F WCI  30
CODY           MOCLDY    48  28  46 W13G23    30.00F
GREYBULL       CLOUDY    22  21  96 MISG      30.09F
WORLAND        CLOUDY    21  17  84 S9        30.09F WCI  11
SHERIDAN       CLOUDY    23  20  88 CALM      30.01F
BUFFALO        CLOUDY    42  26  53 S6        30.01F
GILLETTE       CLOUDY    27  23  85 CALM      30.01F
HULETT           N/A    N/A N/A N/A MISG        N/A
NEWCASTLE      FAIR      19  19 100 MISG      30.10F

$$
WYZ014>020-022>026-101>103-271400-
CENTRAL WYOMING

CITY           SKY/WX    TMP DP  RH WIND       PRES   REMARKS
BIG PINEY      MOCLDY   N/A N/A N/A CALM      30.30F
PINEDALE       MOSUNNY   18  16  93 NW5       30.31F WCI  11
DUBOIS         FAIR      36  23  60 NW14G23   30.16S WCI  27
LANDER         PTCLDY    28  22  78 S6        30.12F WCI  22
RIVERTON       PTCLDY    33  24  69 W10       30.14F WCI  25
CASPER         CLOUDY    40  25  55 SW20      30.10F WCI  30
DOUGLAS        CLOUDY    27  24  89 NE3       30.09F

$$
WYZ021-027>030-104>119-271400-
SOUTHERN WYOMING

CITY           SKY/WX    TMP DP  RH WIND       PRES   REMARKS
EVANSTON       MOCLDY    35  21  56 SW20      30.32F WCI  24
FORT BRIDGER   FAIR      43  18  35 SW17G25   30.33F
ROCK SPRINGS   MOCLDY    35  19  52 E6        30.31F WCI  30
DIXON          FAIR      31  26  82 CALM      30.40S
RAWLINS        CLOUDY    38  21  50 SW18      30.29R WCI  28
SARATOGA       FAIR      39  21  48 MISG      30.30S
LARAMIE        PTCLDY    37  19  48 SW16G26   30.22F WCI  28
CHEYENNE       PTCLDY    44  19  36 W20       30.16F
TORRINGTON     CLOUDY    16  14  92 NE6       30.13F WCI   7
PINE BLUFFS    FAIR      27  21  80 CALM      30.17F

$$


USA.gov is the U.S. government's official web portal to all federal, state and local government web resources and services.